User: anonymous   Login
Location: Unspecified
(0.0000°N, 0.0000°E)
Time: 06:54:27
(UTC+02:00)
Language:

Cosmos 1538 Rocket - Orbit

View from above orbital plane
View from above orbital plane
View from above satellite
View from above satellite

Ground track
Ground track

The orbit data is extracted from the following two-line orbital elements,

1 14760U 84019B   16150.47681262  .00000117  00000-0  49242-4 0  9993
2 14760  74.0432 105.7187 0026846  58.6467  76.8704 14.35777578688515
Epoch (UTC): 29 May 2016 11:26:36
Eccentricity: 0.0026846
inclination: 74.0432°
perigee height: 753 km
apogee height: 791 km
right ascension of ascending node: 105.7187°
argument of perigee: 58.6467°
revolutions per day: 14.35777578
mean anomaly at epoch: 76.8704°
orbit number at epoch: 68851

The dashed part of the orbit path shows where the satellite is in the earth's shadow,  

DLR